Regional Weather Roundup
Issued by NWS Upton, NY

Current Version | Previous Version | Text Only | Print | Product List | Glossary On
Versions: 1 2 3 4 5 6 7 8 9 10 11 12 13 14 15 16 17 18 19 20 21 22 23 24 25 26 27
000
ASUS41 KOKX 250205
RWROKX
REGIONAL WEATHER ROUNDUP
NATIONAL WEATHER SERVICE NEW YORK NY
1000 PM EDT FRI OCT 24 2014

NOTE: "FAIR" INDICATES FEW OR NO CLOUDS BELOW 12,000 FEET WITH NO
SIGNIFICANT WEATHER AND/OR OBSTRUCTIONS TO VISIBILITY.

NYZ071-072-176-178-NJZ106-104-250300-
NEW YORK CITY METRO AREA


CITY           SKY/WX    TMP DP  RH WIND       PRES   REMARKS
CENTRAL PARK   CLEAR     58  43  57 NW7       29.85R
LAGUARDIA APRT MOCLDY    57  46  66 SW3       29.82R
KENNEDY INTL   MOCLDY    53  45  74 S3        29.83S
NEWARK/LIBERTY PTCLDY    60  41  49 NW12      29.83R
BRNX BOT. GARD   N/A     50  46  87 CALM      29.82S
TETERBORO      PTCLDY    54  44  69 NW5       29.82R
$$

NYZ177-179-078>081-250300-
LONG ISLAND NEW YORK

CITY           SKY/WX    TMP DP  RH WIND       PRES   REMARKS
FARMINGDALE    PTCLDY    53  46  77 CALM      29.82S
ISLIP          PTCLDY    51  46  83 W5        29.80S
SHIRLEY        CLEAR     49  45  86 CALM      29.81S
WESTHAMPTON    CLEAR     48  42  80 CALM      29.81S
MONTAUK POINT    N/A     54  43  66 NW13G18   29.78S
$$

NYZ052-065-067-250300-
HUDSON VALLEY

CITY           SKY/WX    TMP DP  RH WIND       PRES   REMARKS
WHITE PLAINS   CLEAR     48  45  89 CALM      29.82R
NEWBURGH       CLEAR     46  45  93 CALM      29.85R
MONTGOMERY     PTCLDY    56  36  47 NW12      29.83R
POUGHKEEPSIE   PTCLDY    47  44  90 CALM      29.84R
ALBANY         CLOUDY    47  44  90 N6        29.87S
$$

NJZ001-105-106-008-010-013-015-019>022-104-250300-
NEW JERSEY

CITY           SKY/WX    TMP DP  RH WIND       PRES   REMARKS
NEWARK/LIBERTY PTCLDY    60  41  49 NW12      29.83R
TETERBORO      PTCLDY    54  44  69 NW5       29.82R
CALDWELL       PTCLDY    58  39  49 NW10      29.85R
MORRISTOWN     CLEAR     59  41  51 NW7G16    29.84R
SOMERVILLE     PTCLDY    54  41  61 N5        29.84R
SUSSEX         PTCLDY    57  39  51 CALM      29.86R
ANDOVER          N/A     56  39  53 N6        29.86R
TRENTON        PTCLDY    59  40  49 NW6       29.85R
MILLVILLE      CLEAR     51  41  68 W7        29.87R
ATLANTIC CITY  PTCLDY    56  41  57 W10       29.85S
WRIGHTSTOWN    PTCLDY    56  43  63 W7        29.83R
TOMS RIVER     PTCLDY    52  45  76 CALM      29.85R
BELMAR         PTCLDY    55  43  62 NW12      29.84R
$$

PAZ047>061-062-071-250300-
EASTERN PENNSYLVANIA

CITY           SKY/WX    TMP DP  RH WIND       PRES   REMARKS
PHILADELPHIA   MOCLDY    61  37  41 W6        29.87S
ALLENTOWN      PTCLDY    59  38  45 CALM      29.88R
SCRANTON       PTCLDY    53  35  50 NW6       29.91R
$$

CTZ002-004>006-009-010-012-RIZ004-006-007-MAZ004-011-015-250300-
SOUTHERN NEW ENGLAND
 IN CT

CITY           SKY/WX    TMP DP  RH WIND       PRES   REMARKS
BRADLEY INTL   PTCLDY    50  42  74 N7        29.77R
HARTFORD       PTCLDY    50  42  74 VRB3      29.78S
DANBURY        CLEAR     46  42  86 CALM      29.83R
WTRBRY/OXFORD  PTCLDY    48  41  76 CALM      29.80S
BRIDGEPORT     PTCLDY    53  46  77 W6        29.80S
MERIDEN        PTCLDY    45  42  89 CALM      29.80R
NEW HAVEN      PTCLDY    54  46  74 VRB3      29.80R
CHESTER        FAIR      48  45  87 NW3       29.79R
GROTON         MOCLDY    50  43  77 NW9       29.77R
WILLIMANTIC    MOCLDY    51  42  71 NW6       29.77S

 IN RI

CITY           SKY/WX    TMP DP  RH WIND       PRES   REMARKS
PROVIDENCE     CLOUDY    51  41  68 NW7       29.75F
BLOCK ISLAND   CLOUDY    52  39  62 N10G18    29.75F
WESTERLY       CLOUDY    51  42  71 CALM      29.77R

 IN MA

CITY           SKY/WX    TMP DP  RH WIND       PRES   REMARKS
BOSTON         MOCLDY    48  41  76 NW15G23   29.74S
WORCESTER        N/A     46  40  79 NW12      29.74F
WESTFIELD      CLEAR     51  42  71 N13       29.78R
PROVINCETOWN   CLOUDY    52  -2  11 NW13G22   29.73R
NANTUCKET      CLOUDY    53  44  71 NW12      29.72R
$$

ANZ330-335-338-340-345-350-353-355-250300-
COASTAL MARINE OBSERVATIONS


STATION/POSITION TIME  SKY/WX   TEMP    WIND        PRES    VSBY  WAVE
                                AIR SEA DIR/SP/G                  HT/PER
                 (UTC)          (F)     (DEG/KT/KT) (MB)    (MI)  (FT/S)
NY HARB ENTRANCE NOT AVBL
4S FIRE IS       0200               63                N/A           2/10
20S FIRE ISLAND  0200            59 63  310/  6/  8 1009.6          2/10
23SW MTP         0200                                 N/A           4/ 4
HUDSON CANYON    0200            60 66  310/ 10/ 12 1009.4          4/ 5
EXECUTION ROCKS  0200            56 62  190/  4/  6   N/A
WESTERN LI SOUND 0200            58     300/  4/  6   N/A           0
CENTRAL LI SOUND 0100            55 63  320/ 12/ 14   N/A           1/ 3
EASTERN LI SOUND 0100            54 63  330/ 10/ 14   N/A
ROBBINS REEF     0200            61     310/ 12/ 15 1008.8
$$


>>>>>>>>>>>>>>>>>>>>>>>>>>>> KEY <<<<<<<<<<<<<<<<<<<<<<<<<<<
>                                                          <
>     SKY/WX - SKY CONDITION/PRESENT WEATHER               <
>     TMP    - TEMPERATURE IN FAHRENHEIT                   <
>     DP     - DEWPOINT IN FAHRENHEIT                      <
>     RH     - RELATIVE HUMIDITY IN PERCENT                <
>     WIND   - DIRECTION AND SPEED IN MPH                  <
>     PRES   - MEAN SEA LEVEL PRESSURE IN INCHES OF HG     <
>     WCI    - WIND CHILL INDEX                            <
>     VSB    - VISIBILITY IN MILES                         <
>     HX     - HEAT INDEX                                  <
>     TC     - TEMPERATURE IN CELSIUS                      <
>     VRB    - VARIABLE WIND DIRECTION                     <
>                                                          <
>>>>>>>>>>>>>>>>>>>>>>>>>>>> KEY <<<<<<<<<<<<<<<<<<<<<<<<<<<





USA.gov is the U.S. government's official web portal to all federal, state and local government web resources and services.